contact:dominique.lefevre@mio.osupytheas.fr, maurice.libes@osupytheas.fr, didier.mallarino@osupytheas.fr
Project:EMSO http://www.emso-fr.org/EMSO-France
Depth: 2436.0 m
Title:EMSO Ligure Ouest : Data MII capteur OXYGEN
DateTime,Latitude,Longitude,Optode-Type,Optode_Serial,Oxygen,Saturation_Oxygen,Temperature
DateTime,Latitude,Longitude,Optode-Type,Optode_Serial,µmol.l-1,%,degC
2017-11-06T00:01:23,42.805,6.029,4330,1995,198.147,60.594,13.287
2017-11-06T00:04:23,42.805,6.029,4330,1995,197.983,60.544,13.287
2017-11-06T00:07:23,42.805,6.029,4330,1995,197.816,60.493,13.287
2017-11-06T00:10:23,42.805,6.029,4330,1995,197.786,60.484,13.287
2017-11-06T00:13:23,42.805,6.029,4330,1995,197.844,60.502,13.287
2017-11-06T00:16:23,42.805,6.029,4330,1995,197.948,60.533,13.286
2017-11-06T00:19:23,42.805,6.029,4330,1995,196.606,60.124,13.288
2017-11-06T00:22:23,42.805,6.029,4330,1995,196.775,60.175,13.287
2017-11-06T00:25:23,42.805,6.029,4330,1995,197.577,60.420,13.287
2017-11-06T00:28:23,42.805,6.029,4330,1995,197.831,60.497,13.286
2017-11-06T00:31:23,42.805,6.029,4330,1995,197.909,60.521,13.286
2017-11-06T00:34:23,42.805,6.029,4330,1995,197.883,60.513,13.286
2017-11-06T00:37:23,42.805,6.029,4330,1995,197.914,60.523,13.286
2017-11-06T00:40:23,42.805,6.029,4330,1995,197.962,60.537,13.286
2017-11-06T00:43:23,42.805,6.029,4330,1995,197.950,60.533,13.286
2017-11-06T00:46:23,42.805,6.029,4330,1995,198.041,60.562,13.287
2017-11-06T00:49:23,42.805,6.029,4330,1995,198.011,60.552,13.286
2017-11-06T00:52:23,42.805,6.029,4330,1995,197.960,60.537,13.287
2017-11-06T00:55:23,42.805,6.029,4330,1995,197.924,60.526,13.286
2017-11-06T00:58:23,42.805,6.029,4330,1995,197.858,60.506,13.286
2017-11-06T01:01:23,42.805,6.029,4330,1995,197.801,60.488,13.286
2017-11-06T01:04:23,42.805,6.029,4330,1995,197.779,60.482,13.287
2017-11-06T01:07:23,42.805,6.029,4330,1995,197.833,60.499,13.287
2017-11-06T01:10:23,42.805,6.029,4330,1995,197.719,60.463,13.286
2017-11-06T01:13:23,42.805,6.029,4330,1995,197.658,60.444,13.286
2017-11-06T01:16:23,42.805,6.029,4330,1995,197.825,60.495,13.286
2017-11-06T01:19:23,42.805,6.029,4330,1995,197.817,60.493,13.286
2017-11-06T01:22:23,42.805,6.029,4330,1995,197.832,60.498,13.287
2017-11-06T01:25:23,42.805,6.029,4330,1995,197.790,60.484,13.286
2017-11-06T01:28:23,42.805,6.029,4330,1995,197.758,60.475,13.287
2017-11-06T01:31:23,42.805,6.029,4330,1995,197.930,60.528,13.286
2017-11-06T01:34:23,42.805,6.029,4330,1995,197.931,60.528,13.286
2017-11-06T01:37:23,42.805,6.029,4330,1995,197.905,60.520,13.287
2017-11-06T01:40:23,42.805,6.029,4330,1995,197.836,60.499,13.286
2017-11-06T01:43:23,42.805,6.029,4330,1995,197.891,60.515,13.286
2017-11-06T01:46:23,42.805,6.029,4330,1995,198.059,60.567,13.286
2017-11-06T01:49:23,42.805,6.029,4330,1995,197.929,60.527,13.286
2017-11-06T01:52:23,42.805,6.029,4330,1995,197.925,60.526,13.286
2017-11-06T01:55:23,42.805,6.029,4330,1995,197.963,60.538,13.286
2017-11-06T01:58:23,42.805,6.029,4330,1995,198.069,60.570,13.286
2017-11-06T02:01:23,42.805,6.029,4330,1995,198.014,60.553,13.286
2017-11-06T02:04:23,42.805,6.029,4330,1995,198.133,60.589,13.286
2017-11-06T02:07:23,42.805,6.029,4330,1995,198.176,60.602,13.286
2017-11-06T02:10:23,42.805,6.029,4330,1995,198.048,60.564,13.286
2017-11-06T02:13:23,42.805,6.029,4330,1995,198.013,60.553,13.287
2017-11-06T02:16:23,42.805,6.029,4330,1995,198.049,60.564,13.286
2017-11-06T02:19:23,42.805,6.029,4330,1995,198.127,60.588,13.287
2017-11-06T02:22:23,42.805,6.029,4330,1995,198.086,60.576,13.287
2017-11-06T02:25:23,42.805,6.029,4330,1995,198.101,60.579,13.286
2017-11-06T02:28:23,42.805,6.029,4330,1995,198.111,60.583,13.286
2017-11-06T02:31:23,42.805,6.029,4330,1995,198.211,60.614,13.286
2017-11-06T02:34:23,42.805,6.029,4330,1995,198.221,60.617,13.286
2017-11-06T02:37:23,42.805,6.029,4330,1995,198.198,60.610,13.287
2017-11-06T02:40:23,42.805,6.029,4330,1995,198.321,60.647,13.287
2017-11-06T02:43:23,42.805,6.029,4330,1995,198.310,60.643,13.286
2017-11-06T02:46:23,42.805,6.029,4330,1995,198.143,60.592,13.286
2017-11-06T02:49:23,42.805,6.029,4330,1995,198.189,60.607,13.286
2017-11-06T02:52:23,42.805,6.029,4330,1995,198.196,60.608,13.286
2017-11-06T02:55:23,42.805,6.029,4330,1995,198.097,60.578,13.286
2017-11-06T02:58:23,42.805,6.029,4330,1995,198.074,60.571,13.286
2017-11-06T03:01:23,42.805,6.029,4330,1995,198.170,60.601,13.286
2017-11-06T03:04:23,42.805,6.029,4330,1995,198.215,60.614,13.286
2017-11-06T03:07:23,42.805,6.029,4330,1995,198.154,60.596,13.286
2017-11-06T03:10:23,42.805,6.029,4330,1995,198.062,60.568,13.286
2017-11-06T03:13:23,42.805,6.029,4330,1995,198.129,60.588,13.286
2017-11-06T03:16:23,42.805,6.029,4330,1995,198.051,60.564,13.286
2017-11-06T03:19:23,42.805,6.029,4330,1995,198.023,60.556,13.286
2017-11-06T03:22:23,42.805,6.029,4330,1995,198.073,60.571,13.286
2017-11-06T03:25:23,42.805,6.029,4330,1995,197.983,60.544,13.286
2017-11-06T03:28:23,42.805,6.029,4330,1995,198.063,60.568,13.286
2017-11-06T03:31:23,42.805,6.029,4330,1995,198.106,60.581,13.286
2017-11-06T03:34:23,42.805,6.029,4330,1995,198.119,60.585,13.286
2017-11-06T03:37:23,42.805,6.029,4330,1995,198.193,60.608,13.286
2017-11-06T03:40:23,42.805,6.029,4330,1995,198.105,60.581,13.286
2017-11-06T03:43:23,42.805,6.029,4330,1995,198.074,60.572,13.286
2017-11-06T03:46:23,42.805,6.029,4330,1995,198.034,60.560,13.287
2017-11-06T03:49:23,42.805,6.029,4330,1995,198.012,60.552,13.286
2017-11-06T03:52:23,42.805,6.029,4330,1995,198.022,60.555,13.286
2017-11-06T03:55:23,42.805,6.029,4330,1995,198.091,60.576,13.286
2017-11-06T03:58:23,42.805,6.029,4330,1995,198.077,60.572,13.286
2017-11-06T04:01:23,42.805,6.029,4330,1995,198.072,60.570,13.286
2017-11-06T04:04:23,42.805,6.029,4330,1995,198.110,60.582,13.286
2017-11-06T04:07:23,42.805,6.029,4330,1995,198.120,60.585,13.286
2017-11-06T04:10:23,42.805,6.029,4330,1995,198.041,60.561,13.286
2017-11-06T04:13:23,42.805,6.029,4330,1995,198.057,60.566,13.286
2017-11-06T04:16:23,42.805,6.029,4330,1995,197.999,60.549,13.286
2017-11-06T04:19:23,42.805,6.029,4330,1995,197.988,60.545,13.286
2017-11-06T04:22:23,42.805,6.029,4330,1995,197.880,60.512,13.286
2017-11-06T04:25:23,42.805,6.029,4330,1995,197.917,60.523,13.286
2017-11-06T04:28:23,42.805,6.029,4330,1995,197.971,60.540,13.286
2017-11-06T04:31:23,42.805,6.029,4330,1995,198.070,60.570,13.286
2017-11-06T04:34:23,42.805,6.029,4330,1995,198.051,60.564,13.286
2017-11-06T04:37:23,42.805,6.029,4330,1995,198.040,60.561,13.286
2017-11-06T04:40:23,42.805,6.029,4330,1995,198.122,60.586,13.286
2017-11-06T04:43:23,42.805,6.029,4330,1995,198.143,60.592,13.286
2017-11-06T04:46:23,42.805,6.029,4330,1995,198.049,60.563,13.286
2017-11-06T04:49:23,42.805,6.029,4330,1995,197.950,60.533,13.286
2017-11-06T04:52:23,42.805,6.029,4330,1995,198.119,60.585,13.286
2017-11-06T04:55:23,42.805,6.029,4330,1995,198.057,60.567,13.286
2017-11-06T04:58:23,42.805,6.029,4330,1995,198.188,60.607,13.286
2017-11-06T05:01:23,42.805,6.029,4330,1995,198.079,60.573,13.286
2017-11-06T05:04:23,42.805,6.029,4330,1995,198.133,60.589,13.286
2017-11-06T05:07:23,42.805,6.029,4330,1995,198.106,60.581,13.286
2017-11-06T05:10:23,42.805,6.029,4330,1995,198.156,60.596,13.286
2017-11-06T05:13:23,42.805,6.029,4330,1995,198.148,60.594,13.286
2017-11-06T05:16:23,42.805,6.029,4330,1995,198.170,60.601,13.286
2017-11-06T05:19:23,42.805,6.029,4330,1995,198.183,60.605,13.287
2017-11-06T05:22:23,42.805,6.029,4330,1995,198.145,60.594,13.287
2017-11-06T05:25:23,42.805,6.029,4330,1995,198.013,60.553,13.286
2017-11-06T05:28:23,42.805,6.029,4330,1995,197.972,60.540,13.286
2017-11-06T05:31:23,42.805,6.029,4330,1995,198.022,60.555,13.286
2017-11-06T05:34:23,42.805,6.029,4330,1995,198.018,60.554,13.286
2017-11-06T05:37:23,42.805,6.029,4330,1995,197.953,60.534,13.286
2017-11-06T05:40:23,42.805,6.029,4330,1995,198.101,60.579,13.286
2017-11-06T05:43:23,42.805,6.029,4330,1995,198.006,60.550,13.286
2017-11-06T05:46:23,42.805,6.029,4330,1995,197.974,60.540,13.286
2017-11-06T05:49:23,42.805,6.029,4330,1995,198.003,60.549,13.286
2017-11-06T05:52:23,42.805,6.029,4330,1995,198.047,60.563,13.286
2017-11-06T05:55:23,42.805,6.029,4330,1995,198.109,60.582,13.286
2017-11-06T05:58:23,42.805,6.029,4330,1995,198.173,60.601,13.286
2017-11-06T06:01:23,42.805,6.029,4330,1995,198.164,60.599,13.286
2017-11-06T06:04:23,42.805,6.029,4330,1995,198.134,60.590,13.286
2017-11-06T06:07:23,42.805,6.029,4330,1995,198.087,60.575,13.286
2017-11-06T06:10:23,42.805,6.029,4330,1995,197.960,60.536,13.286
2017-11-06T06:13:23,42.805,6.029,4330,1995,197.986,60.544,13.286
2017-11-06T06:16:23,42.805,6.029,4330,1995,198.054,60.565,13.286
2017-11-06T06:19:23,42.805,6.029,4330,1995,198.069,60.569,13.286
2017-11-06T06:22:23,42.805,6.029,4330,1995,198.084,60.574,13.286
2017-11-06T06:25:23,42.805,6.029,4330,1995,198.139,60.591,13.286
2017-11-06T06:28:23,42.805,6.029,4330,1995,198.100,60.579,13.286
2017-11-06T06:31:23,42.805,6.029,4330,1995,198.170,60.600,13.286
2017-11-06T06:34:23,42.805,6.029,4330,1995,198.202,60.610,13.286
2017-11-06T06:37:23,42.805,6.029,4330,1995,198.178,60.603,13.286
2017-11-06T06:40:23,42.805,6.029,4330,1995,198.176,60.602,13.286
2017-11-06T06:43:23,42.805,6.029,4330,1995,198.174,60.602,13.286
2017-11-06T06:46:23,42.805,6.029,4330,1995,198.214,60.614,13.286
2017-11-06T06:49:23,42.805,6.029,4330,1995,198.159,60.597,13.286
2017-11-06T06:52:23,42.805,6.029,4330,1995,198.150,60.594,13.286
2017-11-06T06:55:23,42.805,6.029,4330,1995,198.104,60.581,13.286
2017-11-06T06:58:23,42.805,6.029,4330,1995,198.111,60.582,13.286
2017-11-06T07:01:23,42.805,6.029,4330,1995,198.123,60.586,13.286
2017-11-06T07:04:23,42.805,6.029,4330,1995,198.142,60.592,13.286
2017-11-06T07:07:23,42.805,6.029,4330,1995,198.156,60.596,13.286
2017-11-06T07:10:23,42.805,6.029,4330,1995,198.144,60.593,13.286
2017-11-06T07:13:23,42.805,6.029,4330,1995,198.220,60.616,13.286
2017-11-06T07:16:23,42.805,6.029,4330,1995,198.269,60.631,13.286
2017-11-06T07:19:23,42.805,6.029,4330,1995,198.239,60.622,13.286
2017-11-06T07:22:23,42.805,6.029,4330,1995,198.233,60.620,13.287
2017-11-06T07:25:23,42.805,6.029,4330,1995,198.353,60.657,13.286
2017-11-06T07:28:23,42.805,6.029,4330,1995,198.406,60.673,13.286
2017-11-06T07:31:23,42.805,6.029,4330,1995,198.472,60.693,13.286
2017-11-06T07:34:23,42.805,6.029,4330,1995,198.542,60.715,13.287
2017-11-06T07:37:23,42.805,6.029,4330,1995,198.549,60.717,13.287
2017-11-06T07:40:23,42.805,6.029,4330,1995,198.687,60.759,13.286
2017-11-06T07:43:23,42.805,6.029,4330,1995,198.657,60.750,13.286
2017-11-06T07:46:23,42.805,6.029,4330,1995,198.722,60.769,13.286
2017-11-06T07:49:23,42.805,6.029,4330,1995,198.739,60.774,13.286
2017-11-06T07:52:23,42.805,6.029,4330,1995,198.808,60.796,13.286
2017-11-06T07:55:23,42.805,6.029,4330,1995,198.820,60.800,13.286
2017-11-06T07:58:23,42.805,6.029,4330,1995,198.798,60.793,13.286
2017-11-06T08:01:23,42.805,6.029,4330,1995,198.876,60.816,13.286
2017-11-06T08:04:23,42.805,6.029,4330,1995,198.879,60.818,13.286
2017-11-06T08:07:23,42.805,6.029,4330,1995,198.850,60.809,13.286
2017-11-06T08:10:23,42.805,6.029,4330,1995,198.851,60.809,13.286
2017-11-06T08:13:23,42.805,6.029,4330,1995,198.882,60.818,13.286
2017-11-06T08:16:23,42.805,6.029,4330,1995,198.869,60.815,13.286
2017-11-06T08:19:23,42.805,6.029,4330,1995,198.950,60.839,13.286
2017-11-06T08:22:23,42.805,6.029,4330,1995,198.930,60.833,13.286
2017-11-06T08:25:23,42.805,6.029,4330,1995,198.855,60.810,13.286
2017-11-06T08:28:23,42.805,6.029,4330,1995,198.847,60.808,13.286
2017-11-06T08:31:23,42.805,6.029,4330,1995,198.809,60.797,13.287
2017-11-06T08:34:23,42.805,6.029,4330,1995,198.848,60.808,13.286
2017-11-06T08:37:23,42.805,6.029,4330,1995,198.840,60.805,13.286
2017-11-06T08:40:23,42.805,6.029,4330,1995,198.844,60.807,13.286
2017-11-06T08:43:23,42.805,6.029,4330,1995,198.811,60.797,13.287
2017-11-06T08:46:23,42.805,6.029,4330,1995,198.879,60.818,13.286
2017-11-06T08:49:23,42.805,6.029,4330,1995,198.847,60.807,13.286
2017-11-06T08:52:23,42.805,6.029,4330,1995,198.825,60.801,13.286
2017-11-06T08:55:23,42.805,6.029,4330,1995,198.786,60.789,13.286
2017-11-06T08:58:23,42.805,6.029,4330,1995,198.810,60.796,13.286
2017-11-06T09:01:23,42.805,6.029,4330,1995,198.878,60.817,13.286
2017-11-06T09:04:23,42.805,6.029,4330,1995,198.831,60.803,13.286
2017-11-06T09:07:23,42.805,6.029,4330,1995,198.868,60.814,13.286
2017-11-06T09:10:23,42.805,6.029,4330,1995,198.859,60.811,13.286
2017-11-06T09:13:23,42.805,6.029,4330,1995,198.872,60.815,13.286
2017-11-06T09:16:23,42.805,6.029,4330,1995,198.851,60.809,13.286
2017-11-06T09:19:23,42.805,6.029,4330,1995,198.829,60.802,13.286
2017-11-06T09:22:23,42.805,6.029,4330,1995,198.821,60.800,13.286
2017-11-06T09:25:23,42.805,6.029,4330,1995,198.810,60.796,13.286
2017-11-06T09:28:23,42.805,6.029,4330,1995,198.833,60.803,13.286
2017-11-06T09:31:23,42.805,6.029,4330,1995,198.800,60.793,13.286
2017-11-06T09:34:23,42.805,6.029,4330,1995,198.803,60.794,13.286
2017-11-06T09:37:23,42.805,6.029,4330,1995,198.846,60.807,13.286
2017-11-06T09:40:23,42.805,6.029,4330,1995,198.770,60.784,13.286
2017-11-06T09:43:23,42.805,6.029,4330,1995,198.855,60.810,13.286
2017-11-06T09:46:23,42.805,6.029,4330,1995,198.851,60.809,13.286
2017-11-06T09:49:23,42.805,6.029,4330,1995,198.784,60.788,13.286
2017-11-06T09:52:23,42.805,6.029,4330,1995,198.794,60.791,13.286
2017-11-06T09:55:23,42.805,6.029,4330,1995,198.784,60.788,13.286
2017-11-06T09:58:23,42.805,6.029,4330,1995,198.713,60.767,13.286
2017-11-06T10:01:23,42.805,6.029,4330,1995,198.780,60.787,13.286
2017-11-06T10:04:23,42.805,6.029,4330,1995,198.682,60.757,13.286
2017-11-06T10:07:23,42.805,6.029,4330,1995,198.681,60.757,13.286
2017-11-06T10:10:23,42.805,6.029,4330,1995,198.671,60.754,13.286
2017-11-06T10:13:23,42.805,6.029,4330,1995,198.636,60.743,13.286
2017-11-06T10:16:23,42.805,6.029,4330,1995,198.650,60.748,13.286
2017-11-06T10:19:23,42.805,6.029,4330,1995,198.658,60.750,13.286
2017-11-06T10:22:23,42.805,6.029,4330,1995,198.724,60.770,13.286
2017-11-06T10:25:23,42.805,6.029,4330,1995,198.727,60.771,13.286
2017-11-06T10:28:23,42.805,6.029,4330,1995,198.694,60.761,13.286
2017-11-06T10:31:23,42.805,6.029,4330,1995,198.606,60.734,13.286
2017-11-06T10:34:23,42.805,6.029,4330,1995,198.580,60.726,13.286
2017-11-06T10:37:23,42.805,6.029,4330,1995,198.558,60.720,13.287
2017-11-06T10:40:23,42.805,6.029,4330,1995,198.560,60.720,13.286
2017-11-06T10:43:23,42.805,6.029,4330,1995,198.514,60.707,13.287
2017-11-06T10:46:23,42.805,6.029,4330,1995,198.506,60.704,13.287
2017-11-06T10:49:23,42.805,6.029,4330,1995,198.442,60.684,13.286
2017-11-06T10:52:23,42.805,6.029,4330,1995,198.453,60.688,13.286
2017-11-06T10:55:23,42.805,6.029,4330,1995,198.458,60.689,13.286
2017-11-06T10:58:23,42.805,6.029,4330,1995,198.426,60.680,13.287
2017-11-06T11:01:23,42.805,6.029,4330,1995,198.373,60.663,13.286
2017-11-06T11:04:23,42.805,6.029,4330,1995,198.371,60.663,13.286
2017-11-06T11:07:23,42.805,6.029,4330,1995,198.494,60.700,13.286
2017-11-06T11:10:23,42.805,6.029,4330,1995,198.489,60.699,13.287
2017-11-06T11:13:23,42.805,6.029,4330,1995,198.440,60.683,13.286
2017-11-06T11:16:23,42.805,6.029,4330,1995,198.411,60.674,13.286
2017-11-06T11:19:23,42.805,6.029,4330,1995,198.397,60.671,13.287
2017-11-06T11:22:23,42.805,6.029,4330,1995,198.425,60.679,13.286
2017-11-06T11:25:23,42.805,6.029,4330,1995,198.361,60.659,13.286
2017-11-06T11:28:23,42.805,6.029,4330,1995,198.394,60.669,13.286
2017-11-06T11:31:23,42.805,6.029,4330,1995,198.314,60.645,13.286
2017-11-06T11:34:23,42.805,6.029,4330,1995,198.200,60.611,13.287
2017-11-06T11:37:23,42.805,6.029,4330,1995,198.216,60.615,13.286
2017-11-06T11:40:23,42.805,6.029,4330,1995,198.281,60.635,13.286
2017-11-06T11:43:23,42.805,6.029,4330,1995,198.378,60.665,13.287
2017-11-06T11:46:23,42.805,6.029,4330,1995,198.319,60.646,13.286
2017-11-06T11:49:23,42.805,6.029,4330,1995,198.315,60.646,13.287
2017-11-06T11:52:23,42.805,6.029,4330,1995,198.312,60.644,13.286
2017-11-06T11:55:23,42.805,6.029,4330,1995,198.249,60.627,13.288
2017-11-06T11:58:23,42.805,6.029,4330,1995,198.222,60.618,13.287
2017-11-06T12:01:23,42.805,6.029,4330,1995,198.329,60.650,13.287
2017-11-06T12:04:23,42.805,6.029,4330,1995,198.349,60.656,13.286
2017-11-06T12:07:23,42.805,6.029,4330,1995,198.259,60.628,13.286
2017-11-06T12:10:23,42.805,6.029,4330,1995,198.262,60.629,13.287
2017-11-06T12:13:23,42.805,6.029,4330,1995,198.243,60.624,13.287
2017-11-06T12:16:23,42.805,6.029,4330,1995,198.251,60.626,13.286
2017-11-06T12:19:23,42.805,6.029,4330,1995,198.297,60.640,13.287
2017-11-06T12:22:23,42.805,6.029,4330,1995,198.208,60.613,13.287
2017-11-06T12:25:23,42.805,6.029,4330,1995,198.116,60.584,13.286
2017-11-06T12:28:23,42.805,6.029,4330,1995,198.177,60.604,13.287
2017-11-06T12:31:23,42.805,6.029,4330,1995,198.402,60.672,13.287
2017-11-06T12:34:23,42.805,6.029,4330,1995,198.380,60.665,13.287
2017-11-06T12:37:23,42.805,6.029,4330,1995,198.268,60.632,13.287
2017-11-06T12:40:23,42.805,6.029,4330,1995,198.195,60.609,13.286
2017-11-06T12:43:23,42.805,6.029,4330,1995,198.139,60.592,13.287
2017-11-06T12:46:23,42.805,6.029,4330,1995,198.270,60.632,13.287
2017-11-06T12:49:23,42.805,6.029,4330,1995,198.288,60.638,13.287
2017-11-06T12:52:23,42.805,6.029,4330,1995,198.325,60.650,13.288
2017-11-06T12:55:23,42.805,6.029,4330,1995,198.427,60.680,13.286
2017-11-06T12:58:23,42.805,6.029,4330,1995,198.291,60.639,13.287
2017-11-06T13:01:23,42.805,6.029,4330,1995,198.307,60.643,13.286
2017-11-06T13:04:23,42.805,6.029,4330,1995,198.437,60.682,13.286
2017-11-06T13:07:23,42.805,6.029,4330,1995,198.435,60.682,13.287
2017-11-06T13:10:23,42.805,6.029,4330,1995,198.399,60.672,13.287
2017-11-06T13:13:23,42.805,6.029,4330,1995,198.488,60.699,13.287
2017-11-06T13:16:23,42.805,6.029,4330,1995,198.419,60.678,13.288
2017-11-06T13:19:23,42.805,6.029,4330,1995,198.404,60.673,13.287
2017-11-06T13:22:23,42.805,6.029,4330,1995,198.386,60.666,13.286
2017-11-06T13:25:23,42.805,6.029,4330,1995,198.484,60.698,13.287
2017-11-06T13:28:23,42.805,6.029,4330,1995,198.455,60.688,13.286
2017-11-06T13:31:23,42.805,6.029,4330,1995,198.385,60.668,13.287
2017-11-06T13:34:23,42.805,6.029,4330,1995,198.305,60.643,13.287
2017-11-06T13:37:23,42.805,6.029,4330,1995,198.400,60.672,13.287
2017-11-06T13:40:23,42.805,6.029,4330,1995,198.507,60.704,13.287
2017-11-06T13:43:23,42.805,6.029,4330,1995,198.418,60.676,13.286
2017-11-06T13:46:23,42.805,6.029,4330,1995,198.484,60.698,13.287
2017-11-06T13:49:23,42.805,6.029,4330,1995,198.452,60.688,13.287
2017-11-06T13:52:23,42.805,6.029,4330,1995,198.329,60.650,13.287
2017-11-06T13:55:23,42.805,6.029,4330,1995,198.230,60.621,13.288
2017-11-06T13:58:23,42.805,6.029,4330,1995,198.329,60.651,13.287
2017-11-06T14:01:23,42.805,6.029,4330,1995,198.262,60.631,13.288
2017-11-06T14:04:23,42.805,6.029,4330,1995,198.226,60.620,13.288
2017-11-06T14:07:23,42.805,6.029,4330,1995,198.197,60.612,13.288
2017-11-06T14:10:23,42.805,6.029,4330,1995,198.470,60.693,13.286
2017-11-06T14:13:23,42.805,6.029,4330,1995,198.339,60.653,13.287
2017-11-06T14:16:23,42.805,6.029,4330,1995,198.243,60.624,13.287
2017-11-06T14:19:23,42.805,6.029,4330,1995,198.322,60.650,13.288
2017-11-06T14:22:22,42.805,6.029,4330,1995,198.176,60.605,13.288
2017-11-06T14:25:22,42.805,6.029,4330,1995,198.153,60.597,13.287
2017-11-06T14:28:22,42.805,6.029,4330,1995,198.244,60.624,13.287
2017-11-06T14:31:22,42.805,6.029,4330,1995,198.271,60.632,13.287
2017-11-06T14:34:22,42.805,6.029,4330,1995,198.245,60.625,13.287
2017-11-06T14:37:22,42.805,6.029,4330,1995,198.301,60.641,13.286
2017-11-06T14:40:22,42.805,6.029,4330,1995,198.237,60.622,13.287
2017-11-06T14:43:22,42.805,6.029,4330,1995,198.191,60.608,13.287
2017-11-06T14:46:22,42.805,6.029,4330,1995,198.371,60.663,13.287
2017-11-06T14:49:22,42.805,6.029,4330,1995,198.324,60.648,13.286
2017-11-06T14:52:22,42.805,6.029,4330,1995,198.251,60.627,13.287
2017-11-06T14:55:22,42.805,6.029,4330,1995,198.248,60.625,13.286
2017-11-06T14:58:22,42.805,6.029,4330,1995,198.272,60.633,13.287
2017-11-06T15:01:22,42.805,6.029,4330,1995,198.357,60.659,13.287
2017-11-06T15:04:22,42.805,6.029,4330,1995,198.261,60.631,13.288
2017-11-06T15:07:22,42.805,6.029,4330,1995,198.238,60.623,13.287
2017-11-06T15:10:22,42.805,6.029,4330,1995,198.235,60.622,13.287
2017-11-06T15:13:22,42.805,6.029,4330,1995,198.168,60.601,13.287
2017-11-06T15:16:22,42.805,6.029,4330,1995,198.292,60.641,13.288
2017-11-06T15:19:22,42.805,6.029,4330,1995,198.180,60.608,13.289
2017-11-06T15:22:22,42.805,6.029,4330,1995,198.080,60.574,13.287
2017-11-06T15:25:22,42.805,6.029,4330,1995,198.065,60.569,13.286
2017-11-06T15:28:22,42.805,6.029,4330,1995,198.048,60.564,13.287
2017-11-06T15:31:22,42.805,6.029,4330,1995,198.067,60.570,13.287
2017-11-06T15:34:22,42.805,6.029,4330,1995,198.136,60.591,13.287
2017-11-06T15:37:22,42.805,6.029,4330,1995,198.082,60.576,13.288
2017-11-06T15:40:22,42.805,6.029,4330,1995,198.088,60.576,13.287
2017-11-06T15:43:22,42.805,6.029,4330,1995,198.127,60.589,13.287
2017-11-06T15:46:22,42.805,6.029,4330,1995,198.056,60.567,13.287
2017-11-06T15:49:22,42.805,6.029,4330,1995,198.102,60.582,13.288
2017-11-06T15:52:22,42.805,6.029,4330,1995,198.231,60.620,13.287
2017-11-06T15:55:22,42.805,6.029,4330,1995,198.122,60.586,13.286
2017-11-06T15:58:22,42.805,6.029,4330,1995,198.126,60.588,13.287
2017-11-06T16:01:22,42.805,6.029,4330,1995,198.209,60.614,13.287
2017-11-06T16:04:22,42.805,6.029,4330,1995,198.023,60.557,13.287
2017-11-06T16:07:22,42.805,6.029,4330,1995,197.985,60.545,13.287
2017-11-06T16:10:22,42.805,6.029,4330,1995,197.873,60.510,13.287
2017-11-06T16:13:22,42.805,6.029,4330,1995,197.668,60.448,13.287
2017-11-06T16:16:22,42.805,6.029,4330,1995,197.782,60.482,13.286
2017-11-06T16:19:22,42.805,6.029,4330,1995,197.944,60.533,13.287
2017-11-06T16:22:22,42.805,6.029,4330,1995,198.006,60.551,13.287
2017-11-06T16:25:22,42.805,6.029,4330,1995,197.827,60.497,13.287
2017-11-06T16:28:22,42.805,6.029,4330,1995,197.973,60.541,13.287
2017-11-06T16:31:22,42.805,6.029,4330,1995,198.019,60.558,13.289
2017-11-06T16:34:22,42.805,6.029,4330,1995,198.086,60.576,13.287
2017-11-06T16:37:22,42.805,6.029,4330,1995,197.940,60.531,13.287
2017-11-06T16:40:22,42.805,6.029,4330,1995,198.077,60.574,13.288
2017-11-06T16:43:22,42.805,6.029,4330,1995,197.972,60.541,13.287
2017-11-06T16:46:22,42.805,6.029,4330,1995,197.962,60.538,13.287
2017-11-06T16:49:22,42.805,6.029,4330,1995,197.930,60.528,13.287
2017-11-06T16:52:22,42.805,6.029,4330,1995,198.008,60.551,13.286
2017-11-06T16:55:22,42.805,6.029,4330,1995,197.859,60.506,13.287
2017-11-06T16:58:22,42.805,6.029,4330,1995,197.949,60.534,13.286
2017-11-06T17:01:22,42.805,6.029,4330,1995,197.850,60.503,13.286
2017-11-06T17:04:22,42.805,6.029,4330,1995,197.901,60.520,13.288
2017-11-06T17:07:22,42.805,6.029,4330,1995,197.748,60.472,13.286
2017-11-06T17:10:22,42.805,6.029,4330,1995,197.821,60.494,13.287
2017-11-06T17:13:22,42.805,6.029,4330,1995,197.917,60.526,13.288
2017-11-06T17:16:22,42.805,6.029,4330,1995,197.917,60.525,13.287
2017-11-06T17:19:22,42.805,6.029,4330,1995,197.769,60.478,13.286
2017-11-06T17:22:22,42.805,6.029,4330,1995,197.914,60.523,13.287
2017-11-06T17:25:22,42.805,6.029,4330,1995,197.991,60.549,13.288
2017-11-06T17:28:22,42.805,6.029,4330,1995,197.865,60.509,13.287
2017-11-06T17:31:22,42.805,6.029,4330,1995,197.625,60.435,13.287
2017-11-06T17:34:22,42.805,6.029,4330,1995,197.630,60.436,13.287
2017-11-06T17:37:22,42.805,6.029,4330,1995,197.759,60.476,13.287
2017-11-06T17:40:22,42.805,6.029,4330,1995,197.854,60.505,13.287
2017-11-06T17:43:22,42.805,6.029,4330,1995,197.719,60.464,13.287
2017-11-06T17:46:22,42.805,6.029,4330,1995,197.762,60.478,13.287
2017-11-06T17:49:22,42.805,6.029,4330,1995,197.711,60.461,13.287
2017-11-06T17:52:22,42.805,6.029,4330,1995,197.825,60.496,13.287
2017-11-06T17:55:22,42.805,6.029,4330,1995,197.768,60.478,13.286
2017-11-06T17:58:22,42.805,6.029,4330,1995,197.683,60.452,13.287
2017-11-06T18:01:22,42.805,6.029,4330,1995,197.786,60.484,13.286
2017-11-06T18:04:22,42.805,6.029,4330,1995,197.662,60.446,13.287
2017-11-06T18:07:22,42.805,6.029,4330,1995,197.802,60.489,13.287